CAPE
271 812 1155 1534 1600 1474 1499 1452 1692 1753 1685 1833 2104 1686 1469 1626 1761 1838 1883 1876 1866 2150 1963 1898 1969 2049 2153 2289 2078 2123 1647 1960 2208 2091 2129 2339 2666 2825 2747 2526 2389 2090 2645
432 917 1881 1968 1826 1498 1651 1660 1806 1513 1528 1577 1569 1833 1396 1619 1869 2040 2080 1926 1863 2162 2109 1980 1959 2019 2135 2079 2208 1937 1880 2051 2201 2100 1945 2024 2184 2539 2302 2479 1998 2229 2529
617 1104 1642 2294 1981 1768 1729 1805 1863 1868 1648 1737 1765 1810 1758 1751 1964 1816 1890 1643 2061 1868 2019 2060 2058 2021 1894 1823 1908 2151 2375 2206 2287 2350 1978 1778 2209 2390 2437 2268 2381 2354 2324
766 1002 1398 2214 2183 1894 1950 1659 1696 1630 1884 1885 1945 2072 2109 1978 1783 1953 1967 1733 1546 1801 2120 1934 2101 2045 1900 2147 2159 2145 2042 2062 2094 2165 1147 1529 1747 2033 2014 2054 2193 2108 2318
821 1108 1354 1313 1812 1761 1891 1883 1666 1667 1758 2070 2170 2051 1817 1830 1825 1844 1720 1898 1731 2252 2174 2208 2150 1740 1910 1940 1987 1701 1855 1905 2087 1984 1297 1263 896 948 1011 837 1476 1348 1624
986 1193 1300 1507 1332 1627 1861 1503 1807 1632 1570 1724 1802 2029 1899 1695 1745 1408 1823 2124 2189 1963 1623 1650 1645 1628 1466 1415 1373 1454 1498 1799 2050 2319 2295 2127 1338 706 850 1035 1059 1020 1053
1152 1215 1484 1217 827 884 1360 1452 1338 1578 1513 1466 2000 1987 1923 1842 1875 1724 2057 1976 1837 1908 1839 1815 1555 1335 1298 1455 1566 1529 1587 1763 2278 2563 2345 2316 1855 1233 1026 1063 1123 901 632
925 1158 1009 461 872 1105 790 893 1065 1366 1453 1505 1471 1748 1761 1636 1637 1702 1947 1856 2143 1876 1826 1677 1377 1253 1294 1678 2096 1780 1527 1874 1648 1635 1913 2336 2086 1244 1080 801 1006 1102 924
572 773 452 214 280 596 736 692 1202 1371 1359 1627 1739 1874 1869 1932 1983 2177 2171 2064 1805 1983 1835 1696 1694 1609 1657 1713 1874 2066 2358 2089 1867 1647 1548 1999 1672 1342 655 1490 1045 1139 1288
559 590 509 181 222 122 153 448 968 1212 1446 1319 1708 1623 2100 2184 2260 2187 2382 1978 1908 1859 1743 1720 1795 2053 2268 2322 2366 2434 2463 2626 1641 806 1009 1725 1290 1456 851 1164 1345 852 1398
469 510 576 249 249 157 105 411 95 164 815 1190 1554 2021 1654 1841 2296 1863 2085 1957 1800 1582 1571 1748 2066 2415 2541 2589 2596 2421 2228 1899 685 235 262 598 1159 1017 1391 1212 1240 1562 1332
322 387 374 361 202 221 282 621 0 71 299 288 914 608 1454 1472 1743 1377 1392 1662 1609 1743 1950 1944 1916 1700 1346 1074 903 1192 1108 1464 910 385 619 1111 1380 1677 1784 1340 1145 1002 1364
112 91 235 250 372 365 677 128 276 953 224 298 240 316 663 1047 1092 909 1133 1197 1054 916 617 535 1359 1576 1724 1493 1466 1478 1783 2042 1663 1105 550 554 827 1837 1632 1580 1389 1616 1475
133 95 57 83 321 166 329 96 403 269 272 266 422 806 762 904 809 822 802 858 582 420 920 1613 1369 1878 2450 2192 1602 1541 1320 1316 1622 1622 924 404 890 1365 1743 2117 1742 1801 1635
32 100 82 93 275 100 17 73 301 246 278 520 760 871 765 766 970 892 768 511 382 360 1099 1344 1427 2159 2124 1447 1023 1370 1459 1392 1725 1570 1218 412 926 1705 1580 1617 1894 2020 1856
27 68 71 105 160 107 53 52 216 314 328 585 715 1006 1016 1138 1091 1035 657 165 585 542 741 1234 2131 2427 1502 1034 977 1398 1479 1482 1687 1365 1050 1262 865 1146 1399 1393 2018 2231 1869
25 44 3 1 88 125 268 207 165 235 297 498 721 897 1258 1270 1284 830 649 319 679 864 1548 2213 2145 2299 1902 1439 761 964 1274 1239 1361 1427 1147 1215 984 1039 1265 1877 1908 1800 1490
6 24 0 2 10 114 104 439 355 382 789 945 920 803 1214 1273 1097 934 792 352 978 1781 2251 2241 1344 806 1094 2099 1189 674 960 1406 826 1226 1104 1416 1467 852 1472 1887 1804 1801 1927
2 25 8 11 5 33 55 302 407 208 716 879 952 840 905 1071 887 588 261 911 1431 1809 2529 2156 2265 2115 2626 2615 1398 1331 1434 1081 907 997 1156 1604 1385 1186 1353 1960 1785 1723 1527
0 2 21 14 10 47 156 480 537 418 399 916 1034 953 1079 792 493 263 177 1938 1695 1614 1792 1636 2384 2173 2522 2172 1488 1181 629 755 796 922 1228 1393 1407 1508 1281 1642 1724 1283 1459
0 0 0 2 30 85 204 542 801 825 713 793 1096 1071 1163 780 322 817 578 2143 1706 1906 2033 1978 2154 2032 1892 2065 1977 1587 1091 1274 1759 1806 1558 1535 1757 1575 1522 1102 1481 1480 1139
0 0 0 0 0 23 332 755 750 957 663 770 963 1206 1335 889 463 1277 1898 1909 2224 1663 1983 2013 2401 1938 1860 2086 2140 1224 843 1218 1310 1572 1901 1773 1847 1710 1612 1138 1333 1248 774
48 2 0 0 0 0 76 665 720 567 946 1025 1250 1370 1293 999 700 1058 1453 1686 1968 2074 1630 2020 2237 2484 1968 1946 2144 1430 936 991 1268 1151 1222 1205 1386 1626 1399 1520 1663 847 1137
210 151 49 26 31 50 260 723 1108 833 737 841 1182 1342 1467 1362 1245 1432 1776 1857 2121 1740 1993 1558 1802 2320 2720 1841 1832 1521 1741 1913 1135 900 1692 1431 1186 1062 1150 1642 1600 1497 1728
302 315 386 438 408 427 592 1098 1188 999 1076 1102 1291 1599 1550 1600 1698 1556 1934 2123 2222 2046 2072 1931 1670 2711 2807 2502 2586 1625 1991 1804 1600 1666 1230 1277 1414 1286 1348 1642 1214 1042 1693
259 406 456 748 902 914 967 1032 1273 1323 1244 1177 1252 1440 1306 1120 1003 1497 1801 2194 2315 2205 2193 1937 1650 2179 2944 2367 2739 1913 1785 1638 1370 1205 1060 1225 1140 1400 1367 1387 1148 809 1157
CIN
-71 -10 -3 -2 -0 -0 -0 -1 -0 -0 -0 -0 -0 -0 -0 -0 -0 -0 -0 -0 -0 -0 -0 -1 -0 -0 -0 -0 -0 -0 -9 -0 -0 -0 -2 -0 -0 -0 -0 -0 -1 -0 -0
-53 -8 -0 -0 -0 -0 -1 -0 -1 -0 -0 -0 -0 -0 -0 -0 -0 -0 -0 -0 -2 -1 -0 -0 -0 -0 -0 -0 -0 -0 -0 -0 -0 -0 -4 -4 -2 -0 -0 -0 -6 -0 -0
-20 -4 -1 -0 -0 -0 -0 -1 -1 -0 -0 -0 -0 -0 -0 -0 -0 -0 -0 -8 -1 -0 -0 -0 -0 -0 -0 -0 -0 -0 -0 -0 -1 -0 -9 -1 -0 -0 -0 -0 -0 -1 -0
-16 -5 -2 -1 -0 -1 -0 -0 -0 -0 -0 -0 -0 -0 -0 -0 -0 -0 -0 -2 -0 -0 -0 -0 -0 -0 -0 -0 -0 -0 -7 -12 -14 -11 -54 -25 -1 -2 -6 -0 -0 -1 -0
-10 -11 -5 -18 -1 -2 -0 -0 -0 -0 -0 -0 -0 -0 -0 -0 -3 -1 -2 -0 -0 -0 -0 -0 -0 -3 -0 -0 -5 -24 -31 -21 -22 -4 -80 -37 -30 -25 -23 -29 -3 -5 -7
-5 -7 -11 -8 -13 -3 -2 -4 -0 -3 -3 -4 -2 -0 -0 -4 -2 -14 -4 -0 -0 -0 -0 -0 -0 -1 -7 -30 -50 -45 -45 -34 -26 -0 -10 -16 -26 -115 -52 -9 -8 -8 -8
-0 -1 -2 -2 -9 -7 -7 -7 -15 -2 -2 -1 -2 -1 -2 -1 -2 -3 -0 -0 -0 -0 -0 -0 -0 -18 -35 -40 -47 -52 -32 -37 -0 -0 -1 -13 -2 -44 -75 -21 -11 -16 -15
-0 -0 -1 -32 -10 -0 -5 -9 -8 -13 -9 -7 -7 -1 -1 -7 -9 -2 -0 -0 -0 -0 -0 -0 -14 -52 -59 -35 -27 -36 -42 -30 -14 -18 -26 -17 -20 -25 -8 -36 -51 -11 -5
-1 -0 -25 -71 -42 -0 -0 -3 -2 -7 -6 -5 -3 -0 -1 -0 -0 -0 -0 -0 -0 -0 -0 -4 -17 -38 -43 -51 -50 -39 -35 -35 -15 -29 -29 -26 -62 -21 -50 -2 -58 -60 -7
-0 -0 -1 -41 -13 -19 -11 -3 -1 -2 -1 -7 -1 -4 -1 -0 -0 -0 -0 -0 -0 -0 -4 -14 -25 -32 -24 -22 -40 -39 -31 -25 -9 -88 -54 -17 -76 -8 -78 -41 -32 -76 -16
-0 -0 -0 -11 -3 -1 -0 -1 -15 -18 -3 -7 -2 -4 -17 -16 -1 -0 -2 -0 -3 -11 -19 -33 -31 -32 -29 -30 -41 -51 -45 -18 -61 -94 -104 -157 -58 -54 -7 -6 -3 -4 -4
-0 -0 -1 -5 -4 -0 -0 -5 -0 -61 -47 -59 -22 -75 -25 -11 -0 -0 -9 -15 -14 -19 -30 -54 -75 -90 -100 -50 -55 -113 -45 -43 -69 -127 -79 -113 -45 -30 -11 -8 -15 -19 -8
-7 -3 -0 -3 -6 -4 -8 -42 -34 -11 -45 -34 -96 -94 -55 -13 -6 -18 -14 -17 -33 -67 -74 -121 -77 -80 -70 -64 -58 -37 -38 -48 -56 -91 -135 -170 -102 -30 -24 -16 -11 -4 -2
-23 -17 -0 -16 -10 -33 -29 -44 -3 -3 -5 -38 -48 -26 -27 -13 -25 -29 -36 -54 -87 -94 -73 -82 -65 -87 -61 -81 -89 -81 -64 -57 -62 -61 -96 -190 -97 -56 -26 -8 -14 -1 -6
-7 -0 -1 -5 -11 -55 -83 -48 -11 -9 -10 -8 -12 -21 -22 -25 -26 -31 -60 -86 -123 -138 -86 -86 -85 -57 -73 -105 -120 -88 -57 -71 -55 -45 -63 -186 -97 -34 -46 -37 -15 -2 -6
-29 -2 -20 -14 -17 -28 -68 -73 -34 -21 -19 -19 -19 -16 -39 -38 -44 -38 -64 -113 -132 -142 -145 -106 -72 -59 -97 -125 -121 -112 -88 -74 -72 -65 -61 -59 -124 -83 -63 -55 -18 -4 -11
-2 -13 -99 -119 -23 -42 -32 -36 -49 -18 -18 -22 -18 -33 -36 -52 -55 -71 -71 -112 -123 -128 -106 -63 -85 -68 -65 -95 -143 -119 -100 -86 -60 -74 -74 -59 -67 -122 -78 -37 -30 -21 -25
-11 -40 -0 -128 -105 -32 -72 -29 -52 -49 -16 -21 -19 -33 -39 -52 -61 -71 -71 -102 -105 -64 -50 -41 -69 -127 -93 -69 -90 -121 -124 -95 -102 -93 -83 -70 -58 -25 -54 -34 -31 -25 -14
-33 -60 -81 -115 -113 -78 -96 -44 -47 -109 -31 -30 -28 -35 -54 -50 -66 -80 -109 -77 -76 -47 -28 -33 -29 -51 -19 -19 -42 -59 -97 -99 -98 -74 -81 -57 -63 -33 -13 -38 -31 -32 -27
-0 -20 -107 -124 -147 -92 -39 -35 -36 -87 -104 -53 -35 -39 -51 -56 -90 -109 -117 -35 -43 -27 -21 -25 -27 -26 -26 -30 -21 -37 -95 -119 -101 -81 -62 -42 -57 -52 -34 -19 -14 -12 -36
-0 -0 -0 -190 -179 -114 -67 -25 -21 -16 -30 -51 -41 -49 -52 -69 -107 -74 -69 -23 -34 -18 -24 -31 -19 -20 -14 -29 -15 -17 -44 -61 -47 -56 -53 -36 -37 -35 -34 -40 -20 -16 -17
-0 -0 -0 -0 -0 -148 -73 -51 -42 -33 -43 -39 -35 -39 -36 -64 -88 -45 -28 -17 -15 -13 -20 -18 -17 -7 -15 -27 -7 -28 -10 -15 -21 -29 -37 -33 -20 -23 -24 -40 -31 -41 -51
-88 -18 -0 -0 -0 -0 -116 -47 -45 -61 -47 -34 -26 -19 -35 -52 -59 -57 -40 -26 -17 -13 -5 -9 -11 -11 -3 -14 -36 -16 -3 -2 -11 -41 -44 -53 -49 -31 -34 -38 -28 -56 -44
-79 -82 -141 -141 -123 -134 -90 -36 -21 -16 -9 -20 -17 -24 -29 -49 -40 -37 -29 -25 -19 -13 -10 -12 -9 -7 -9 -1 -21 -41 -46 -28 -3 -5 -19 -36 -60 -41 -52 -37 -25 -30 -17
-73 -67 -77 -105 -100 -87 -88 -38 -18 -18 -19 -22 -33 -48 -47 -48 -33 -25 -22 -23 -16 -6 -9 -15 -12 -6 -9 -8 -9 -10 -20 -23 -50 -5 -1 -4 -35 -51 -51 -36 -38 -46 -19
-89 -91 -81 -95 -100 -83 -79 -65 -39 -22 -21 -16 -19 -16 -21 -26 -30 -33 -22 -23 -14 -7 -11 -7 -17 -11 -2 -5 -9 -10 -6 -2 -0 -5 -4 -8 -8 -27 -46 -56 -52 -61 -32
Wind_Speed
5 7 10 8 10 8 10 11 12 12 12 12 13 13 13 12 11 10 9 8 9 9 10 11 10 9 10 10 9 11 11 9 9 9 9 9 10 9 9 8 7 9 10
11 7 10 9 10 10 10 10 10 11 10 10 11 11 11 11 10 10 9 9 10 12 11 11 11 11 11 11 11 11 10 8 8 7 8 6 7 8 7 8 5 9 8
11 9 8 9 11 11 10 9 10 11 11 10 10 11 11 11 10 10 10 9 11 12 11 12 10 11 11 10 9 8 8 7 7 6 7 6 6 5 6 7 7 8 7
8 8 6 8 10 10 12 10 9 10 10 10 9 10 11 11 11 10 11 10 12 10 10 12 10 10 10 9 8 7 6 5 4 4 2 6 4 6 7 5 5 6 7
6 5 5 9 9 11 11 10 9 9 10 10 10 10 10 11 10 13 11 12 11 13 11 11 10 9 8 6 6 6 4 2 1 3 1 5 1 7 5 3 5 6 6
7 4 4 7 7 9 10 11 11 8 7 9 10 11 11 10 11 13 11 12 11 12 10 10 9 7 5 3 3 2 1 2 4 5 4 4 2 6 17 7 3 6 5
8 5 3 7 2 3 7 8 9 14 10 9 9 9 10 11 12 12 13 12 11 11 10 8 7 4 2 1 2 3 4 4 6 6 6 5 5 11 16 3 3 6 9
8 8 8 10 11 13 4 6 6 8 8 8 11 9 9 10 11 14 13 12 11 10 9 6 4 2 3 4 6 5 5 5 5 6 7 3 0 6 6 4 2 6 7
7 8 8 7 7 9 11 3 6 7 7 9 11 11 10 12 11 12 11 11 9 9 7 3 1 2 3 3 4 4 6 4 5 4 6 2 3 16 8 15 4 2 4
7 7 7 7 4 2 4 3 7 10 8 9 10 10 9 11 12 13 9 7 7 6 3 1 1 2 3 4 5 6 7 6 5 2 3 2 4 9 17 19 7 6 7
6 7 8 7 6 5 2 3 7 12 10 6 6 9 7 4 6 9 7 6 5 3 1 1 2 4 4 5 4 7 7 4 3 2 3 3 2 3 12 6 7 8 6
8 8 8 10 10 10 8 7 8 3 4 2 2 3 4 5 5 6 5 1 2 1 1 3 4 6 6 3 3 5 4 4 3 2 2 2 5 6 4 3 4 3 4
8 6 7 7 6 7 6 3 2 3 2 2 2 1 4 3 3 3 2 2 1 1 3 2 2 2 5 5 3 5 5 5 4 3 0 4 4 4 4 2 4 4 5
10 9 8 8 6 6 4 3 6 5 4 3 3 3 3 3 2 2 2 1 1 1 2 3 3 4 5 4 4 5 5 4 4 3 4 6 7 5 5 2 1 3 4
9 9 9 8 6 6 5 4 6 5 4 4 3 3 2 2 2 2 2 1 0 1 2 2 4 4 4 4 4 5 6 4 3 2 1 6 8 3 6 3 1 4 4
9 10 10 8 7 7 4 4 4 4 5 4 3 3 3 2 1 3 3 1 1 1 2 3 4 3 3 3 4 5 6 4 3 2 3 1 4 3 2 4 3 5 5
10 11 6 6 7 5 5 5 4 4 4 3 2 2 3 3 3 3 2 1 0 0 4 3 3 1 2 3 3 2 3 2 1 1 1 4 2 3 1 3 5 4 3
9 11 8 6 8 7 4 4 3 3 2 3 2 2 4 4 3 3 2 1 0 1 2 1 2 1 2 2 2 1 2 4 4 3 2 2 2 1 5 3 3 3 3
10 11 10 9 7 6 4 2 3 2 3 3 3 2 3 3 3 2 2 1 1 1 2 2 1 2 3 3 2 0 1 2 0 3 2 3 2 0 1 6 2 0 1
9 10 10 7 5 6 5 4 2 3 3 3 3 3 4 3 3 3 2 1 0 0 1 2 3 2 2 4 4 2 1 1 1 1 3 2 3 3 2 4 4 5 1
10 9 9 8 7 5 5 4 3 4 3 2 2 4 5 5 5 3 1 1 1 0 2 2 3 4 1 3 3 1 3 3 3 2 2 3 4 5 4 4 3 2 3
14 13 11 11 10 7 5 3 1 3 2 1 3 4 5 6 6 4 2 0 1 0 2 2 3 3 1 3 3 1 1 4 4 5 5 3 3 3 4 5 3 3 3
14 15 14 13 12 10 8 4 2 2 2 4 4 4 6 7 7 5 4 3 1 2 3 3 2 3 3 1 3 3 1 3 1 2 3 2 2 3 3 4 4 4 4
15 13 14 13 13 11 11 8 8 6 5 4 4 2 4 6 6 6 6 5 3 2 3 3 2 3 2 3 2 2 3 3 2 1 3 3 2 3 3 3 5 4 4
14 14 14 13 13 12 12 11 9 8 4 3 3 4 5 6 6 6 7 6 5 4 3 3 4 2 2 2 2 1 1 0 1 2 2 2 2 1 1 1 3 2 4
14 14 13 14 14 13 12 13 12 11 8 5 5 5 5 5 4 5 7 6 5 5 4 3 3 4 4 3 3 1 1 2 1 1 1 1 3 1 1 2 3 2 3
Wind_Direction
173 148 157 169 132 128 122 126 125 129 128 124 122 125 123 120 117 117 120 113 111 97 96 106 98 94 97 105 104 97 100 101 108 104 96 91 89 98 106 108 141 128 134
146 145 161 155 149 143 135 134 131 127 126 126 130 129 126 125 124 125 116 114 106 96 95 108 106 102 97 103 99 100 109 111 108 101 99 114 108 114 111 112 122 108 139
145 147 159 165 161 151 145 140 136 138 140 139 137 132 130 133 130 124 117 112 105 109 112 108 109 104 104 98 100 107 111 115 111 93 105 112 106 126 111 104 108 124 138
135 145 158 165 164 160 147 152 150 149 146 141 145 130 128 126 133 129 116 112 104 110 106 112 108 101 93 94 105 111 108 112 103 92 108 91 60 95 96 112 126 124 137
129 129 161 168 160 166 162 156 162 158 157 158 143 136 133 134 137 131 115 111 115 110 107 107 102 97 98 110 115 127 120 109 53 218 161 82 88 46 42 83 149 138 156
121 124 173 162 170 168 169 167 176 155 171 153 152 142 142 138 132 126 135 116 117 110 110 104 98 97 109 126 132 150 176 264 278 279 261 147 204 103 46 264 113 118 119
125 128 105 76 22 197 200 186 165 152 157 158 143 134 141 141 130 129 115 127 120 112 105 94 88 82 69 9 349 325 292 290 299 304 310 278 194 165 176 168 86 116 110
123 107 99 78 40 353 287 180 174 152 136 144 122 123 125 133 125 125 136 132 128 115 102 95 88 67 16 7 16 6 318 307 311 320 306 302 34 184 264 168 124 116 137
127 118 115 92 55 2 338 231 161 118 123 110 109 117 133 131 130 123 125 123 126 113 113 117 95 24 2 345 5 316 311 314 298 311 304 279 138 125 227 293 90 334 161
125 120 123 114 105 62 302 293 81 54 70 98 104 120 130 130 123 125 127 133 124 113 136 115 349 349 328 325 309 310 305 300 314 319 310 36 249 129 154 245 217 217 242
130 124 127 142 165 166 242 177 94 77 19 42 85 97 93 82 116 128 94 131 123 121 204 279 308 302 305 275 281 286 301 281 309 314 314 32 202 307 186 221 212 214 224
155 142 142 150 173 189 197 144 128 197 141 273 87 89 104 103 110 111 120 148 111 105 294 307 318 315 282 301 252 242 275 280 249 251 282 268 202 215 206 189 188 207 217
158 163 158 147 154 145 123 104 115 126 146 169 99 123 93 113 110 97 135 158 157 224 253 275 290 296 304 310 303 301 306 279 254 219 255 266 271 110 134 145 159 178 196
173 173 163 161 148 113 109 114 150 148 169 149 182 150 133 141 125 128 147 151 177 246 287 320 324 332 314 322 340 327 320 290 252 212 175 226 239 143 135 84 79 178 186
183 171 165 165 138 132 115 156 147 158 162 164 170 151 172 187 156 158 146 173 139 229 257 278 320 349 346 353 353 348 346 314 223 215 197 202 226 173 124 85 341 182 171
176 173 165 167 147 147 143 161 150 161 160 176 175 184 199 190 159 148 149 148 86 198 267 312 313 289 9 4 6 12 354 334 193 179 119 143 248 244 121 125 155 160 177
183 167 165 157 167 168 168 155 164 164 152 168 199 166 137 138 139 144 151 198 317 114 297 298 311 308 349 13 347 354 350 322 254 165 24 359 80 185 215 127 140 152 176
184 181 167 186 178 169 154 151 155 148 182 225 219 169 131 129 158 167 175 168 87 31 339 22 16 11 330 335 326 298 284 288 297 262 329 7 54 95 148 112 132 159 195
190 188 188 186 179 162 175 141 178 182 220 238 230 209 163 180 161 209 120 102 43 77 50 14 340 322 349 347 293 326 275 286 121 91 40 73 90 85 128 127 168 131 346
187 195 191 196 173 180 172 171 187 214 216 219 215 206 190 161 150 163 103 359 197 351 84 25 328 356 338 338 326 17 67 77 292 108 107 121 130 154 187 226 178 165 166
189 195 200 191 196 182 186 193 187 206 213 225 205 168 171 159 158 141 159 274 182 48 37 356 342 336 355 347 306 190 120 83 82 103 121 117 148 181 191 214 210 218 178
191 199 195 202 189 202 203 188 225 179 180 205 204 202 204 168 171 173 200 291 76 52 349 334 359 332 359 351 320 296 30 137 90 72 89 104 124 164 186 204 189 204 236
198 198 201 201 202 193 205 210 181 168 173 185 198 202 192 179 182 192 205 258 295 313 324 326 345 331 349 347 330 341 228 43 345 102 120 118 175 195 207 203 192 169 197
206 201 203 205 201 204 188 204 210 219 213 203 184 187 191 192 192 197 197 203 202 262 290 303 300 320 290 309 258 103 15 341 27 58 129 118 206 230 195 180 200 189 188
201 202 202 202 201 206 194 200 205 219 231 201 190 176 191 185 200 197 205 201 194 215 225 262 284 277 262 283 298 186 166 91 67 330 335 103 153 120 201 247 168 169 192
199 200 199 197 205 199 202 200 203 206 218 220 200 192 190 194 208 215 216 207 216 212 220 241 258 238 244 240 262 276 342 324 45 280 280 302 331 166 155 214 229 234 192